DW6276 Weather Reports


Display with metric or nautical units.
time (UTC)temp
F
wind
direction
speed
MPH
gust
MPH
rain 1hr
in
rain 24hr
in
rain mn
in
humidity
%
barometer
mb
20260502224016 67 248 9.0 13.0 0.00 0.00 0.00 30 1011.9
20260502223016 67 225 11.0 16.0 0.00 0.00 0.00 30 1012.0
20260502222036 67 0 7.0 12.0 0.00 0.00 0.00 31 1012.2
20260502221016 68 225 8.0 12.0 0.00 0.00 0.00 29 1012.3
20260502220016 68 270 8.0 14.0 0.00 0.00 0.00 29 1012.6
20260502215016 69 270 9.0 19.0 0.00 0.00 0.00 31 1012.6
20260502214036 68 270 11.0 19.0 0.00 0.00 0.00 29 1012.8
20260502213036 68 270 9.0 15.0 0.00 0.00 0.00 30 1012.8
20260502212016 68 248 9.0 16.0 0.00 0.00 0.00 30 1013.1
20260502211036 67 225 9.0 13.0 0.00 0.00 0.00 30 1013.3
20260502210016 68 270 8.0 15.0 0.00 0.00 0.00 30 1013.5
20260502205036 66 248 7.0 11.0 0.00 0.00 0.00 31 1013.7
20260502204016 66 293 8.0 18.0 0.00 0.00 0.00 31 1013.8
20260502203016 67 270 8.0 13.0 0.00 0.00 0.00 29 1014.2
20260502202016 66 270 8.0 14.0 0.00 0.00 0.00 32 1014.3
20260502201016 66 270 7.0 12.0 0.00 0.00 0.00 30 1014.5
20260502200016 65 293 6.0 13.0 0.00 0.00 0.00 32 1014.7
20260502195036 65 270 8.0 14.0 0.00 0.00 0.00 30 1015.0
20260502194016 65 293 6.0 11.0 0.00 0.00 0.00 31 1015.1
20260502193016 64 225 9.0 14.0 0.00 0.00 0.00 29 1015.2
20260502192016 64 225 7.0 14.0 0.00 0.00 0.00 32 1015.5
20260502191016 64 248 9.0 15.0 0.00 0.00 0.00 31 1015.8
20260502190036 63 270 7.0 13.0 0.00 0.00 0.00 32 1015.9
20260502185036 63 225 8.0 13.0 0.00 0.00 0.00 30 1016.0
20260502184016 63 270 6.0 14.0 0.00 0.00 0.00 33 1016.2
20260502183016 62 225 6.0 11.0 0.00 0.00 0.00 32 1016.4
20260502182036 62 293 9.0 13.0 0.00 0.00 0.00 31 1016.6
20260502181015 61 293 6.0 12.0 0.00 0.00 0.00 34 1016.8
20260502164015 57 270 5.0 9.0 0.00 0.00 0.00 36 1018.2
20260502163015 57 293 7.0 10.0 0.00 0.00 0.00 35 1018.3
20260502162135 57 315 8.0 12.0 0.00 0.00 0.00 35 1018.5
20260502161015 56 270 7.0 13.0 0.00 0.00 0.00 38 1018.6
20260502152015 55 270 8.0 13.0 0.00 0.00 0.00 40 1019.2
20260502151035 55 270 6.0 10.0 0.00 0.00 0.00 44 1019.2
20260502123017 38 225 1.0 2.0 0.00 0.00 0.00 79 1020.0
20260502122017 36 0 1.0 2.0 0.00 0.00 0.00 81 1019.8
20260502121017 35 0 1.0 2.0 0.00 0.00 0.00 83 1019.7
20260502115017 32 0.0 0.0 0.00 0.00 0.00 86 1019.7
20260502114017 31 0.0 0.0 0.00 0.00 0.00 86 1019.6
20260502113037 30 0.0 0.0 0.00 0.00 0.00 86 1019.5
20260502112017 29 0.0 0.0 0.00 0.00 0.00 85 1019.4
20260502111017 29 0.0 0.0 0.00 0.00 0.00 85 1019.3
20260502110017 30 0.0 0.0 0.00 0.00 0.00 86 1019.4
20260502105037 29 0.0 0.0 0.00 0.00 0.00 84 1019.4
20260502104017 30 0.0 0.0 0.00 0.00 0.00 84 1019.4
20260502103017 30 0.0 0.0 0.00 0.00 0.00 84 1019.3
20260502102017 30 0.0 0.0 0.00 0.00 0.00 84 1019.4
20260502101137 30 0.0 0.0 0.00 0.00 0.00 84 1019.4
20260502091017 31 0.0 0.0 0.00 0.00 0.00 84 1019.2
20260502071017 31 0.0 0.0 0.00 0.00 0.00 79 1019.3
20260502070016 32 0.0 0.0 0.00 0.00 0.00 79 1019.2
20260502065016 32 0.0 0.0 0.00 0.00 0.00 79 1019.4
20260502064016 33 0.0 0.0 0.00 0.00 0.00 79 1019.4
20260502063016 32 0.0 0.0 0.00 0.00 0.00 79 1019.5
20260502062056 33 0.0 0.0 0.00 0.00 0.00 79 1019.5
20260502061016 33 0.0 0.0 0.00 0.00 0.00 79 1019.5
20260502060016 33 0.0 0.0 0.00 0.00 0.00 79 1019.6
20260502055016 33 0.0 0.0 0.00 0.00 0.00 79 1019.4
20260502054016 33 0.0 0.0 0.00 0.00 0.00 78 1019.5
20260502053036 34 0.0 0.0 0.00 0.00 0.00 78 1019.5
20260502052036 34 0.0 0.0 0.00 0.00 0.00 77 1019.4
20260502051016 34 0.0 0.0 0.00 0.00 0.00 77 1019.4
20260502050016 35 0.0 0.0 0.00 0.00 0.00 76 1019.4
20260502045017 36 0.0 0.0 0.00 0.00 0.00 75 1019.4
20260502044037 35 0.0 0.0 0.00 0.00 0.00 74 1019.3
20260502043017 35 0.0 0.0 0.00 0.00 0.00 74 1019.3
20260502042017 36 0.0 1.0 0.00 0.00 0.00 73 1019.3
20260502041017 36 0.0 0.0 0.00 0.00 0.00 72 1019.3
20260502040017 36 0.0 0.0 0.00 0.00 0.00 71 1019.3
20260502035017 37 0.0 0.0 0.00 0.00 0.00 71 1019.3
20260502034017 37 0.0 0.0 0.00 0.00 0.00 70 1019.4
20260502033017 38 0.0 0.0 0.00 0.00 0.00 68 1019.4
20260502032016 38 0.0 0.0 0.00 0.00 0.00 67 1019.4
20260502031016 39 0.0 0.0 0.00 0.00 0.00 66 1019.5
20260502030017 39 0.0 0.0 0.00 0.00 0.00 65 1019.6
20260502025017 40 0.0 0.0 0.00 0.00 0.00 62 1019.3
20260502024017 41 0.0 0.0 0.00 0.00 0.00 60 1019.3
20260502023016 41 0.0 0.0 0.00 0.00 0.00 57 1019.3
20260502022017 42 0.0 0.0 0.00 0.00 0.00 55 1019.3
20260502021016 43 0.0 0.0 0.00 0.00 0.00 52 1019.2
20260502020017 44 0.0 0.0 0.00 0.00 0.00 48 1019.1
20260502015016 46 0.0 0.0 0.00 0.00 0.00 45 1019.0
20260502014037 47 0.0 2.0 0.00 0.00 0.00 44 1018.9
20260502013017 48 0.0 1.0 0.00 0.00 0.00 41 1018.9
20260502012016 49 23 1.0 2.0 0.00 0.00 0.00 40 1018.9
20260502011017 50 23 2.0 3.0 0.00 0.00 0.00 37 1018.9
20260502010016 50 23 3.0 7.0 0.00 0.00 0.00 37 1018.9
20260502005017 51 0 4.0 7.0 0.00 0.00 0.00 37 1018.7
20260502004017 51 338 4.0 7.0 0.00 0.00 0.00 35 1018.7
20260502003016 51 338 7.0 11.0 0.00 0.00 0.00 36 1018.7
20260502002036 52 338 5.0 8.0 0.00 0.00 0.00 35 1018.6
20260502001016 52 338 5.0 8.0 0.00 0.00 0.00 34 1018.5
20260502000016 51 0 5.0 8.0 0.00 0.00 0.00 35 1018.5
20260501235016 53 0 7.0 11.0 0.00 0.00 0.00 33 1018.5
20260501234036 53 23 5.0 9.0 0.00 0.00 0.00 33 1018.5
20260501233016 52 0 4.0 8.0 0.00 0.00 0.00 34 1018.4
20260501232016 53 315 7.0 11.0 0.00 0.00 0.00 32 1018.5
20260501231016 54 315 7.0 11.0 0.00 0.00 0.00 33 1018.5
20260501230016 53 0 6.0 10.0 0.00 0.00 0.00 34 1018.5
20260501225016 52 0 6.0 9.0 0.00 0.00 0.00 34 1018.4